OBJECT L

基本信息
目录编号:
68426
目录名称:
OBJECT L
国际标识:
2026-067L
轨道中心:
EARTH
物体状态:
在轨
发射日期:
2026-03-30 UTC
国别:
(TBD)
轨道信息
数据来源: 国际轨道数据
星历时间: 2026-06-13T03:35:29+0800
半长轴: 6885.033km
偏心率: 0.0002753
轨道倾角: 97.454°
近地点辐角: 56.228°
升交点赤经: 122.439°
平近点角: 303.922°
近地点: 505km
远地点: 508.792km
周期: 94.759分钟
每日圈数: 15.196507
详细信息
发射场:
AFWTR
轨道高度:
LEO
数据来源:
AOE Integration Group
参考系:
TEME
时间系统:
UTC
历元类型:
SGP4
2D轨道图
3D轨道图
轨道高度分析图
轨道倾角分析图
轨道综合分析图
查看轨道综合分析图